ECHO 1 DEB (METAL OBJ), 51

Orbit data source: Space-Track

ECHO 1 DEB (METAL OBJ), 51 is space debris in LEO originally from a launch on Fri, 12 Aug 1960 UTC launched from the Air Force Eastern Test Range (AFETR). Debris objects in space refer to the collection of defunct objects orbiting the Earth. Examples of debris include non-operational satellites, rocket bodies, and fragments generated from explosions, collisions, or faulty payload assembly.

Loading next visibility...
Identifier
51, 1960-009C
Orbit
LEO
Country
Flag of USUS
Related business
Manufacturer
Kaiser-Fleetwings
Mission
Spacecraft
Bus & Motor
ECHO CANISTER, Unknown motor
Mass
5 kg wet, 5 kg dry
Launch date (UTC)
1960-08-12 (65 years ago)
Launch vehicle
Unknown
Launch site
Air Force Eastern Test Range (AFETR)
Object type
Payload
Rocket body
Debris
Shape & HBR
Unknown shape, 1.0 m
Radar Cross Section
Medium (>0.1 m² and <1 m²)

Expand to show TLE details & history
Last TLE update: 21 hours ago

TLE from 21 hours ago
0 ECHO 1 DEB (METAL OBJ)
1    51U 60009C   26014.65872273 -.00000087  00000-0 -14686-4 0  9990
2    51  47.2101 164.4279 0111251 100.6631 260.6707 12.18380614912457
Epoch: 2026-01-14T15:48Z
TLE epoch observation values (Epoch: 2026-01-14T15:48:33.643Z)
Latitude
-0.00006°
Longitude
173.16412°
Altitude
1,615.16 km
Speed
7.057 km/s
True Right ascension
10h 57m 42s
True Declination
0° 00' 00"
Sunlit
Object was in full shadow at epoch
Visualization orbit readout
Latitude
Unknown
Longitude
Unknown
Altitude
Unknown
Speed
Unknown
Apparent Right ascension
Unknown
Apparent Declination
Unknown
Sunlit
N/A
Visualization observer readout
Local Sidereal Time
13:11:34
Azimuth
Unknown
Elevation
Unknown
Doppler factor
Unknown
Orbital elements
Apogee altitude
1,689.434 km
Perigee altitude
1,511.904 km
Semi-major axis
7,978.806 km
Eccentricity
0.01113
Inclination
47.2101°
RAAN
164.4279°
Arg. of periapsis
100.6631°
True anomaly
259.41565°
Mean anomaly
260.6707°
Eccentric anomaly
260.04288°
Mean motion
3.04534 °/min
Orbital period
118.21 mins
BSTAR
-0.000014686
Loading maneuver chart data...
Computing Atmospheric mass density...
Loading historical data...
Loading historical data...
Loading historical data...
Loading historical data...
Loading historical data...
Loading historical data...
Loading historical data...
Other satellites on launch #9 in the year 1960 (1960-08-12 UTC)

Documentation

Showing up to 5 results
|